Volver al catálogo

FENGYUN 1C DEB

ActivoPO
NORAD 30719·DEBRIS·🇨🇳 China

Lanzado May 10, 1999 desde Taiyuan Satellite Launch Center

Loading…

Próximos Pases (próximas 24 horas)

TLE

ActualizadoSource: Space-Track

Época: Sep 14, 2026, 22:07 UTC

1 30719U 99025ASD 26257.92185441  .00012460  00000-0  21909-2 0  9997
2 30719  98.8993  66.4897 0009618  64.8684 295.3515 14.67755511 14780

Sigue FENGYUN 1C DEB en tiempo real con AllMySat

Download on the App Store